Location: Sweet Grass
(48.9965°N, 111.9649°W)
Time: 17:53:15
(UTC+00:00)

DOVE 4 - Visible Passes

Search period start: 28 March 2023 00:00
Search period end: 07 April 2023 00:00
Orbit: 586 x 791 km, 97.8° (Epoch: 27 March)

Date Brightness Start Highest point End Pass type
(mag) Time Alt. Az. Time Alt. Az. Time Alt. Az.
28 Mar ? 05:23:31 10° NE 05:23:42 11° NE 05:23:42 11° NE visible
28 Mar ? 07:00:28 10° N 07:02:18 22° N 07:02:18 22° N visible
29 Mar ? 06:01:26 10° NNE 06:02:42 17° NNE 06:02:42 17° NNE visible
29 Mar ? 07:39:29 10° N 07:41:18 18° NNW 07:41:18 18° NNW visible
30 Mar ? 06:39:51 10° N 06:41:41 23° N 06:41:41 23° N visible
30 Mar ? 08:19:22 10° NNW 08:20:17 12° NW 08:20:17 12° NW visible
31 Mar ? 05:41:08 10° NNE 05:42:04 15° NE 05:42:04 15° NE visible
31 Mar ? 07:18:38 10° N 07:20:40 22° NNW 07:20:40 22° NNW visible
01 Apr ? 06:19:18 10° NNE 06:21:02 22° NNE 06:21:02 22° NNE visible
01 Apr ? 07:57:56 10° NNW 07:59:38 15° NW 07:59:38 15° NW visible
02 Apr ? 05:21:01 10° NE 05:21:24 12° NE 05:21:24 12° NE visible
02 Apr ? 06:57:52 10° N 06:59:59 25° N 06:59:59 25° N visible
03 Apr ? 05:58:49 10° NNE 06:00:20 19° NNE 06:00:20 19° NNE visible
03 Apr ? 07:36:50 10° N 07:38:56 20° NNW 07:38:56 20° NNW visible
04 Apr ? 06:37:10 10° N 06:39:17 26° N 06:39:17 26° N visible
04 Apr ? 08:16:43 10° NNW 08:17:52 12° NW 08:17:52 12° NW visible
05 Apr ? 05:38:28 10° NNE 05:39:36 16° NE 05:39:36 16° NE visible
05 Apr ? 07:15:54 10° N 07:18:12 24° NNW 07:18:12 24° NNW visible
06 Apr ? 06:16:33 10° NNE 06:18:31 25° NNE 06:18:31 25° NNE visible
06 Apr ? 07:55:10 10° NNW 07:57:07 16° NW 07:57:07 16° NW visible
